TimeEDT,TemperatureF,Dew PointF,Humidity,Sea Level PressureIn,VisibilityMPH,Wind Direction,Wind SpeedMPH,Gust SpeedMPH,PrecipitationIn,Events,Conditions,WindDirDegrees,DateUTC
12:15 AM,70.0,69.3,98,30.01,2.0,Calm,Calm,-,N/A,,Clear,0,2013-08-28 04:15:00
12:35 AM,70.7,70.2,98,30.01,2.0,Calm,Calm,-,N/A,,Clear,0,2013-08-28 04:35:00
12:55 AM,70.2,69.8,99,30.01,1.8,Calm,Calm,-,N/A,,Mist,0,2013-08-28 04:55:00
1:15 AM,68.9,68.5,99,30.01,1.5,Calm,Calm,-,N/A,,Mist,0,2013-08-28 05:15:00
1:35 AM,69.6,69.4,99,30.01,2.0,Calm,Calm,-,N/A,,Clear,0,2013-08-28 05:35:00
1:55 AM,68.5,68.2,99,30.00,1.2,Calm,Calm,-,N/A,,Mist,0,2013-08-28 05:55:00
2:15 AM,68.4,68.2,99,30.00,1.8,Calm,Calm,-,N/A,,Mist,0,2013-08-28 06:15:00
2:35 AM,67.1,66.7,99,29.99,1.0,Calm,Calm,-,N/A,,Mist,0,2013-08-28 06:35:00
2:55 AM,66.7,66.6,99,29.99,1.2,Calm,Calm,-,N/A,,Mist,0,2013-08-28 06:55:00
3:15 AM,66.7,66.6,99,29.98,1.2,Calm,Calm,-,N/A,,Mist,0,2013-08-28 07:15:00
3:35 AM,66.0,65.8,99,29.98,1.0,Calm,Calm,-,N/A,,Mist,0,2013-08-28 07:35:00
3:55 AM,65.7,65.5,99,29.97,1.2,Calm,Calm,-,N/A,,Mist,0,2013-08-28 07:55:00
4:15 AM,67.1,67.1,100,29.97,1.2,Calm,Calm,-,N/A,,Mist,0,2013-08-28 08:15:00
4:35 AM,66.4,66.4,100,29.97,1.0,Calm,Calm,-,N/A,,Mist,0,2013-08-28 08:35:00
4:55 AM,66.7,66.7,100,29.97,1.0,Calm,Calm,-,N/A,,Mist,0,2013-08-28 08:55:00
5:15 AM,65.7,65.7,100,29.98,1.5,Calm,Calm,-,N/A,,Mist,0,2013-08-28 09:15:00
5:35 AM,65.8,65.8,100,29.98,1.5,Calm,Calm,-,N/A,,Mist,0,2013-08-28 09:35:00
5:55 AM,66.2,66.2,100,29.98,1.2,Calm,Calm,-,N/A,,Mist,0,2013-08-28 09:55:00
6:15 AM,66.0,66.0,100,29.98,1.8,Calm,Calm,-,N/A,,Mist,0,2013-08-28 10:15:00
6:35 AM,66.7,66.7,100,29.99,1.8,Calm,Calm,-,N/A,,Mist,0,2013-08-28 10:35:00
6:55 AM,67.8,67.8,100,30.00,2.5,WSW,3.5,-,N/A,,Clear,240,2013-08-28 10:55:00
7:15 AM,68.9,68.9,100,30.00,2.5,Calm,Calm,-,N/A,,Clear,0,2013-08-28 11:15:00
7:35 AM,69.3,69.1,99,30.00,2.0,Calm,Calm,-,N/A,,Clear,0,2013-08-28 11:35:00
7:55 AM,69.4,69.3,99,30.01,1.8,Calm,Calm,-,N/A,,Mist,0,2013-08-28 11:55:00
8:15 AM,70.0,69.8,99,30.00,2.5,Calm,Calm,-,N/A,,Clear,0,2013-08-28 12:15:00
8:35 AM,70.9,70.0,97,30.00,2.5,Calm,Calm,-,N/A,,Clear,0,2013-08-28 12:35:00
8:55 AM,71.2,69.8,95,30.00,2.5,WSW,4.6,-,N/A,,Clear,240,2013-08-28 12:55:00
9:15 AM,71.8,70.0,94,30.01,3.0,Calm,Calm,-,N/A,,Clear,0,2013-08-28 13:15:00
9:35 AM,72.7,70.3,92,30.01,3.0,SW,3.5,-,N/A,,Clear,230,2013-08-28 13:35:00
9:55 AM,73.4,70.7,91,30.01,3.0,SW,3.5,-,N/A,,Clear,230,2013-08-28 13:55:00
10:15 AM,74.3,71.1,90,30.02,3.0,Calm,Calm,-,N/A,,Clear,0,2013-08-28 14:15:00
10:35 AM,75.2,71.6,89,30.02,4.0,Calm,Calm,-,N/A,,Clear,0,2013-08-28 14:35:00
10:55 AM,75.6,71.4,87,30.03,5.0,Calm,Calm,-,N/A,Rain,Light Rain,0,2013-08-28 14:55:00
11:15 AM,75.9,72.3,89,30.02,4.0,Calm,Calm,-,N/A,Rain,Light Rain,0,2013-08-28 15:15:00
11:35 AM,76.1,72.1,87,30.02,4.0,Calm,Calm,-,N/A,,Scattered Clouds,0,2013-08-28 15:35:00
11:55 AM,77.4,72.7,85,30.02,4.0,Calm,Calm,-,N/A,,Haze,0,2013-08-28 15:55:00
12:15 PM,78.8,72.9,82,30.02,4.0,SW,3.5,-,N/A,,Haze,230,2013-08-28 16:15:00
12:35 PM,79.7,73.2,80,30.01,3.0,Calm,Calm,-,N/A,,Haze,0,2013-08-28 16:35:00
12:55 PM,80.6,73.2,78,30.01,4.0,SW,4.6,-,N/A,,Haze,220,2013-08-28 16:55:00
1:15 PM,82.0,73.8,76,30.00,4.0,SSW,4.6,-,N/A,,Haze,210,2013-08-28 17:15:00
1:35 PM,82.9,73.2,72,29.99,4.0,SW,5.8,-,N/A,,Haze,220,2013-08-28 17:35:00
1:55 PM,84.2,73.6,70,29.98,4.0,SW,6.9,-,N/A,,Haze,220,2013-08-28 17:55:00
2:15 PM,84.4,73.4,69,29.98,4.0,WSW,6.9,-,N/A,,Haze,240,2013-08-28 18:15:00
2:35 PM,84.7,72.5,67,29.97,4.0,WSW,4.6,-,N/A,,Haze,240,2013-08-28 18:35:00
2:55 PM,84.2,73.6,70,29.96,3.0,SW,4.6,-,N/A,,Haze,230,2013-08-28 18:55:00
3:15 PM,83.3,73.4,72,29.96,5.0,SW,5.8,-,N/A,,Haze,220,2013-08-28 19:15:00
3:35 PM,82.9,73.8,74,29.95,4.0,SW,5.8,-,N/A,,Haze,230,2013-08-28 19:35:00
3:55 PM,84.2,74.5,72,29.94,4.0,SW,4.6,-,N/A,,Haze,220,2013-08-28 19:55:00
4:15 PM,86.5,74.5,67,29.93,5.0,WSW,5.8,-,N/A,,Haze,240,2013-08-28 20:15:00
4:35 PM,86.4,73.0,64,29.93,4.0,SW,11.5,-,N/A,,Haze,220,2013-08-28 20:35:00
4:55 PM,85.5,72.3,65,29.92,5.0,SW,8.1,-,N/A,,Haze,220,2013-08-28 20:55:00
5:15 PM,84.7,72.9,67,29.92,5.0,SW,8.1,-,N/A,,Haze,220,2013-08-28 21:15:00
5:35 PM,83.5,72.9,70,29.92,4.0,SW,4.6,-,N/A,,Haze,220,2013-08-28 21:35:00
5:55 PM,83.3,73.9,73,29.91,5.0,Calm,Calm,-,N/A,,Haze,0,2013-08-28 21:55:00
6:15 PM,84.0,74.7,73,29.91,4.0,South,4.6,-,N/A,,Haze,190,2013-08-28 22:15:00
6:35 PM,84.2,74.7,73,29.91,4.0,SW,4.6,-,N/A,,Haze,220,2013-08-28 22:35:00
6:55 PM,83.7,74.3,73,29.91,5.0,SW,5.8,-,N/A,,Haze,220,2013-08-28 22:55:00
7:15 PM,82.8,73.9,75,29.91,4.0,SSW,3.5,-,N/A,,Haze,210,2013-08-28 23:15:00
7:35 PM,81.3,74.3,79,29.91,4.0,SSW,3.5,-,N/A,,Haze,200,2013-08-28 23:35:00
7:55 PM,80.2,73.9,81,29.90,5.0,SSW,3.5,-,N/A,,Haze,200,2013-08-28 23:55:00
8:15 PM,79.7,73.8,82,29.89,5.0,SSW,5.8,-,N/A,,Haze,210,2013-08-29 00:15:00
8:35 PM,79.2,73.6,83,29.91,5.0,SW,3.5,-,N/A,,Haze,220,2013-08-29 00:35:00
8:55 PM,78.3,73.4,85,29.92,5.0,Calm,Calm,-,N/A,,Haze,0,2013-08-29 00:55:00
9:15 PM,77.7,73.6,87,29.91,4.0,SW,3.5,-,N/A,,Clear,230,2013-08-29 01:15:00
9:35 PM,78.8,73.4,83,29.90,5.0,SSW,5.8,-,N/A,,Haze,210,2013-08-29 01:35:00
9:55 PM,77.9,73.2,85,29.90,5.0,SW,3.5,-,N/A,,Haze,230,2013-08-29 01:55:00
10:15 PM,77.7,73.0,85,29.91,5.0,WSW,3.5,-,N/A,,Haze,240,2013-08-29 02:15:00
10:35 PM,77.0,72.7,86,29.92,4.0,Calm,Calm,-,N/A,,Clear,0,2013-08-29 02:35:00
10:55 PM,77.0,72.7,86,29.92,5.0,SW,3.5,-,N/A,,Clear,230,2013-08-29 02:55:00
11:15 PM,76.6,72.5,87,29.91,5.0,Calm,Calm,-,N/A,,Clear,0,2013-08-29 03:15:00
11:35 PM,76.5,72.5,87,29.90,4.0,Calm,Calm,-,N/A,,Clear,0,2013-08-29 03:35:00
11:55 PM,76.6,72.3,86,29.90,4.0,WSW,4.6,-,N/A,,Haze,240,2013-08-29 03:55:00